YC0TBU-4 Weather Reports


Display with metric or nautical units.
time (UTC)temp
F
wind
direction
speed
MPH
gust
MPH
rain 1hr
in
rain 24hr
in
rain mn
in
humidity
%
barometer
mb
20260508092722 89 0.0 0.0 0.00 0.00 0.00 35 1006.9
20260508091147 88 0.0 0.0 0.00 0.00 0.00 37 1007.1
20260508085612 87 0.0 0.0 0.00 0.00 0.00 37 1006.2
20260508084037 88 0.0 0.0 0.00 0.00 0.00 35 1005.7
20260508082502 87 0.0 0.0 0.00 0.00 0.00 36 1005.9
20260508080927 87 0.0 0.0 0.00 0.00 0.00 37 1006.0
20260508075336 88 0.0 0.0 0.00 0.00 0.00 36 1006.3
20260508073801 87 0.0 0.0 0.00 0.00 0.00 37 1006.5
20260508072225 88 0.0 0.0 0.00 0.00 0.00 37 1006.3
20260508070634 88 0.0 0.0 0.00 0.00 0.00 36 1006.9
20260508065059 90 0.0 0.0 0.00 0.00 0.00 34 1008.1
20260508063524 92 0.0 0.0 0.00 0.00 0.00 33 1007.5
20260508061949 91 0.0 0.0 0.00 0.00 0.00 34 1008.3
20260508060414 91 0.0 0.0 0.00 0.00 0.00 34 1008.3
20260508054839 90 0.0 0.0 0.00 0.00 0.00 34 1007.9
20260508053304 91 0.0 0.0 0.00 0.00 0.00 31 1007.8
20260508051729 91 0.0 0.0 0.00 0.00 0.00 31 1008.1
20260508050106 92 0.0 0.0 0.00 0.00 0.00 31 1008.4
20260508044531 91 0.0 0.0 0.00 0.00 0.00 32 1008.3
20260508042956 92 0.0 0.0 0.00 0.00 0.00 31 1008.9
20260508041421 90 0.0 0.0 0.00 0.00 0.00 33 1009.8
20260508035846 89 0.0 0.0 0.00 0.00 0.00 35 1009.7
20260508034311 90 0.0 0.0 0.00 0.00 0.00 35 1009.5
20260508032736 91 0.0 0.0 0.00 0.00 0.00 35 1010.0
20260508031201 91 0.0 0.0 0.00 0.00 0.00 35 1010.4
20260508025626 91 0.0 0.0 0.00 0.00 0.00 35 1010.4
20260508024035 90 0.0 0.0 0.00 0.00 0.00 35 1010.4
20260508022500 91 0.0 0.0 0.00 0.00 0.00 35 1010.5
20260508020924 90 0.0 0.0 0.00 0.00 0.00 35 1010.3
20260508015349 90 0.0 0.0 0.00 0.00 0.00 35 1010.4
20260508013814 90 0.0 0.0 0.00 0.00 0.00 36 1010.3
20260508012239 90 0.0 0.0 0.00 0.00 0.00 35 1010.3
20260508010704 90 0.0 0.0 0.00 0.00 0.00 35 1009.5
20260508005129 90 0.0 0.0 0.00 0.00 0.00 35 1009.6
20260508003554 90 0.0 0.0 0.00 0.00 0.00 36 1009.7
20260508002020 90 0.0 0.0 0.00 0.00 0.00 35 1009.6
20260508000444 90 0.0 0.0 0.00 0.00 0.00 36 1009.0
20260507234909 90 0.0 0.0 0.00 0.00 0.00 36 1009.0
20260507233334 90 0.0 0.0 0.00 0.00 0.00 36 1009.0
20260507231759 90 0.0 0.0 0.00 0.00 0.00 36 1009.1
20260507230224 90 0.0 0.0 0.00 0.00 0.00 36 1009.3
20260507224649 90 0.0 0.0 0.00 0.00 0.00 36 1009.4
20260507223114 90 0.0 0.0 0.00 0.00 0.00 36 1009.3
20260507221539 90 0.0 0.0 0.00 0.00 0.00 36 1007.9
20260507220010 91 0.0 0.0 0.00 0.00 0.00 35 1008.8
20260507214413 91 0.0 0.0 0.00 0.00 0.00 36 1008.8
20260507212838 90 0.0 0.0 0.00 0.00 0.00 36 1009.7
20260507211303 90 0.0 0.0 0.00 0.00 0.00 36 1009.5
20260507205728 90 0.0 0.0 0.00 0.00 0.00 35 1009.1
20260507204153 90 0.0 0.0 0.00 0.00 0.00 35 1009.0
20260507202618 91 0.0 0.0 0.00 0.00 0.00 35 1009.1
20260507201043 91 0.0 0.0 0.00 0.00 0.00 35 1008.9
20260507195508 91 0.0 0.0 0.00 0.00 0.00 35 1009.0
20260507193933 91 0.0 0.0 0.00 0.00 0.00 35 1009.2
20260507192358 91 0.0 0.0 0.00 0.00 0.00 35 1009.4
20260507190823 91 0.0 0.0 0.00 0.00 0.00 35 1009.3
20260507185232 92 0.0 0.0 0.00 0.00 0.00 34 1009.7
20260507183657 92 0.0 0.0 0.00 0.00 0.00 34 1010.1
20260507182122 92 0.0 0.0 0.00 0.00 0.00 33 1009.8
20260507180547 92 0.0 0.0 0.00 0.00 0.00 33 1010.4
20260507175012 91 0.0 0.0 0.00 0.00 0.00 32 1010.8
20260507173437 90 0.0 0.0 0.00 0.00 0.00 34 1011.1
20260507171902 84 0.0 0.0 0.00 0.00 0.00 42 1011.1
20260507170327 86 0.0 0.0 0.00 0.00 0.00 40 1011.6
20260507164752 86 0.0 0.0 0.00 0.00 0.00 40 1011.4
20260507163216 86 0.0 0.0 0.00 0.00 0.00 40 1011.8
20260507161641 88 0.0 0.0 0.00 0.00 0.00 38 1011.9
20260507160106 88 0.0 0.0 0.00 0.00 0.00 38 1012.0
20260507154531 85 0.0 0.0 0.00 0.00 0.00 42 1011.9
20260507153008 85 0.0 0.0 0.00 0.00 0.00 42 1011.7
20260507151405 84 0.0 0.0 0.00 0.00 0.00 43 1011.4
20260507145832 86 0.0 0.0 0.00 0.00 0.00 40 1011.1
20260507144255 88 0.0 0.0 0.00 0.00 0.00 39 1011.4
20260507142720 87 0.0 0.0 0.00 0.00 0.00 39 1011.3
20260507141145 86 0.0 0.0 0.00 0.00 0.00 40 1011.6
20260507135610 84 0.0 0.0 0.00 0.00 0.00 42 1010.4
20260507134035 84 0.0 0.0 0.00 0.00 0.00 43 1010.6
20260507132500 83 0.0 0.0 0.00 0.00 0.00 43 1010.2
20260507130925 83 0.0 0.0 0.00 0.00 0.00 43 1010.3
20260507125350 82 0.0 0.0 0.00 0.00 0.00 44 1010.2
20260507123815 84 0.0 0.0 0.00 0.00 0.00 42 1009.7
20260507122208 82 0.0 0.0 0.00 0.00 0.00 45 1008.7
20260507120633 84 0.0 0.0 0.00 0.00 0.00 43 1007.7
20260507115058 83 0.0 0.0 0.00 0.00 0.00 45 1008.2
20260507113506 86 0.0 0.0 0.00 0.00 0.00 42 1007.1
20260507111931 85 0.0 0.0 0.00 0.00 0.00 42 1007.5
20260507110356 85 0.0 0.0 0.00 0.00 0.00 41 1008.1
20260507104821 86 0.0 0.0 0.00 0.00 0.00 40 1007.9
20260507103246 86 0.0 0.0 0.00 0.00 0.00 40 1007.3
20260507101711 85 0.0 0.0 0.00 0.00 0.00 39 1006.9
20260507100136 87 0.0 0.0 0.00 0.00 0.00 38 1007.3
20260507094601 88 0.0 0.0 0.00 0.00 0.00 36 1006.4
20260507093026 89 0.0 0.0 0.00 0.00 0.00 34 1006.5